Location: Ammerl�gen
(47.2167°N, 9.6000°E)
Time: 08:24:01
(UTC+00:00)

Iridium 4 Rocket - Pass Details

Date: 05 August 2021
Orbit: 584 x 904 km, 86.9° (Epoch: 18 September)

Event Time Altitude Azimuth Distance (km) Brightness Sun altitude
Rises 23:04:27 0° 10° (N) 3,485 8.1 -25.9°
Reaches altitude 10° 23:07:50 10° 30° (NNE) 2,572 6.9 -25.9°
Maximum altitude 23:11:33 17° 70° (ENE) 2,122 5.9 -26.0°
Enters shadow 23:14:10 13° 99° (E) 2,360 5.9 -26.0°
